Regional Weather Roundup
Issued by NWS State College, PA

Home | Current Version | Previous Version | Graphics & Text | Print | Product List | Glossary Off
Versions: 1 2 3 4 5 6 7 8 9 10 11 12 13 14 15 16 17 18 19 20 21 22 23 24 25 26 27 28 29 30 31 32 33 34 35 36 37 38 39 40 41 42 43 44 45 46 47 48 49 50

000
ASUS41 KCTP 271603
RWRCTP

REGIONAL WEATHER ROUNDUP
NATIONAL WEATHER SERVICE STATE COLLEGE PA
1200 PM EDT MON MAR 27 2017

Note: "fair" indicates few or no clouds below 12,000 feet with no
significant weather and/or obstructions to visibility.

* = STATION THAT DOES NOT REPORT PRECIPITATION /E.G. RAIN...SNOW...ETC/
    THUNDER OR FOG.

PAZ002>004-007>009-013>016-020>023-029>032-271700-
WESTERN PENNSYLVANIA

CITY           SKY/WX    TMP DP  RH WIND       PRES   REMARKS
ERIE           CLOUDY    55  51  86 W12       29.96R
MEADVILLE      CLOUDY    56  48  74 SW12G20   29.96S
FRANKLIN*      CLOUDY    55  48  76 W7        29.99S
NEW CASTLE     CLOUDY    59  48  67 SW12      29.99S
BEAVER COUNTY  CLOUDY    59  48  67 W8        30.00S
BUTLER*        CLOUDY    61  48  63 W7G18     30.00F
PITTSBURGH INT PTSUNNY   60  50  69 SW7G16    29.99F
PITTSBURGH     MOSUNNY   63  49  60 W12G21    29.99S
INDIANA*       PTSUNNY   63  54  72 W10G21    30.01F
LATROBE        MOSUNNY   63  52  67 W14       30.00S
WASHINGTON CO* SUNNY     63  50  63 SW8G16    30.02F
$$

PAZ004>006-010>012-017>019-024>028-033>037-041-042-045-046-049>053-271700-
CENTRAL PENNSYLVANIA

CITY           SKY/WX    TMP DP  RH WIND       PRES   REMARKS
BRADFORD       CLOUDY    52  51  97 SW9       29.96S
DUBOIS         CLOUDY    55  48  77 SW14      29.97S
CLEARFIELD       N/A    N/A N/A N/A MISG      29.99F
JOHNSTOWN      PTSUNNY   60  51  72 W14       29.99S
ALTOONA        PTSUNNY   58  53  84 SW6       30.01F
STATE COLLEGE  CLOUDY    50  46  87 SW9       30.02S
WILLIAMSPORT   CLOUDY    45  42  89 E6        30.03F
SELINSGROVE    CLOUDY    46  43  89 VRB5      30.05F
FT INDIANTOWN  CLOUDY    43  43 100 CALM      30.05F FOG
CAPITAL CITY   CLOUDY    46  43  89 E5        30.05F FOG
HARRISBURG     CLOUDY    46  45  96 VRB3      30.05S FOG
YORK           CLOUDY    50  49  96 CALM      30.04F
$$

PAZ038>040-043-044-047-048-054-055-060>062-067>071-271700-
EASTERN PENNSYLVANIA

CITY           SKY/WX    TMP DP  RH WIND       PRES   REMARKS
SCRANTON       CLOUDY    46  43  89 W3        30.02F
MOUNT POCONO   CLOUDY    44  44 100 SW10      30.00F
ALLENTOWN      CLOUDY    44  40  85 CALM      30.06F FOG
QUAKERTOWN*    CLOUDY    45  45 100 CALM      30.06F
READING        CLOUDY    46  45  96 CALM      30.05F FOG
LANCASTER      CLOUDY    48  48 100 VRB3      30.05F FOG
COATESVILLE    FOG       48  48 100 CALM      30.06F VSB 1
POTTSTOWN        N/A     44  43  96 CALM      30.07F FOG
BLUE BELL      CLOUDY    45  45 100 CALM      30.05F
DOYLESTOWN     CLOUDY    46  46 100 CALM      30.05F
WILLOW GROVE   NOT AVBL
NORTH PHILA    CLOUDY    49  47  93 CALM      30.08F FOG
PHILADELPHIA   CLOUDY    49  47  93 SE3       30.07F FOG
$$




USA.gov is the U.S. government's official web portal to all federal, state and local government web resources and services.